Change the Weather History Date:

Thursday, November 13, 2014

  Actual Average Record
Temperature  
Mean Temperature 48 °F -  
Max Temperature 51 °F 51 °F 65 °F (1975)
Min Temperature 45 °F 41 °F 30 °F (1976)
Degree Days  
Heating Degree Days 17    
Moisture  
Dew Point 39 °F    
Average Humidity 70    
Maximum Humidity 80    
Minimum Humidity 59    
Precipitation  
Precipitation 0.00 in - - ()
Sea Level Pressure  
Sea Level Pressure 29.99 in    
Wind  
Wind Speed 12 mph (NW)    
Max Wind Speed 21 mph    
Max Gust Speed 26 mph    
Visibility 10 miles    
Events Rain    
Averages and records for this station are not official NWS values.
T = Trace of Precipitation, MM = Missing Value Source: NWS Daily Summary

Daily Weather History Graph

Daily Weather History Graph

Search for Another Location

Airport or City:

Trip Planner

Search our weather history database for the weather conditions in past years. The results will help you decide how hot, cold, wet, or windy it might be!

Date:

Astronomy

Nov. 13, 2014 Rise Set
Actual Time 6:25 AM EST 4:22 PM EST
Civil Twilight 5:56 AM EST 4:52 PM EST
Nautical Twilight 5:23 AM EST 5:25 PM EST
Astronomical Twilight 4:50 AM EST 5:57 PM EST
Moon 10:36 PM EST (11/13) 11:43 AM EST (11/13)
Length of Visible Light 10h 55m
Length of Day
9h 56m
Waning Gibbous, 59% of the Moon is Illuminated
Nov 13
Waning Gibbous
Nov 14
Last Quarter
Nov 22
New
Nov 29
First Quarter
Dec 6
Full

Hourly Weather History & Observations

Time (EST) Temp. Windchill Dew Point Humidity Pressure Visibility Wind Dir Wind Speed Gust Speed Precip Events Conditions
12:53 AM 51.1 °F - 37.9 °F 61% 29.96 in 10.0 mi NNW 19.6 mph - N/A   Partly Cloudy
1:53 AM 50.0 °F - 37.9 °F 63% 29.98 in 10.0 mi NNW 20.7 mph - N/A   Clear
2:53 AM 48.0 °F - 37.9 °F 68% 29.99 in 10.0 mi NNW 20.7 mph 26.5 mph N/A   Clear
3:53 AM 46.9 °F - 37.9 °F 71% 30.00 in 10.0 mi North 16.1 mph - N/A   Clear
4:53 AM 46.9 °F - 36.0 °F 66% 30.02 in 10.0 mi North 12.7 mph - N/A   Clear
5:53 AM 46.0 °F 39.0 °F 34.0 °F 63% 30.02 in 10.0 mi North 17.3 mph - N/A   Clear
6:53 AM 46.0 °F 39.3 °F 34.0 °F 63% 30.04 in 10.0 mi North 16.1 mph - N/A   Clear
7:53 AM 46.9 °F - 36.0 °F 66% 30.05 in 10.0 mi NNW 12.7 mph - N/A   Clear
8:53 AM - - - N/A% 30.06 in - North - - N/A   Unknown
9:53 AM - - - N/A% 30.06 in - North - - N/A   Unknown
10:53 AM - - - N/A% 30.05 in - North - - N/A   Unknown
11:53 AM 51.1 °F - 37.0 °F 59% 30.02 in 10.0 mi Calm Calm - N/A   Unknown
12:53 PM 51.1 °F - 39.0 °F 63% 30.01 in 10.0 mi SE 6.9 mph - N/A   Clear
1:53 PM 51.1 °F - 39.0 °F 63% 30.01 in 10.0 mi West 3.5 mph - N/A   Partly Cloudy
2:53 PM 50.0 °F - 39.0 °F 66% 30.00 in 10.0 mi South 5.8 mph - N/A   Partly Cloudy
3:53 PM 48.0 °F - 39.9 °F 74% 29.97 in 10.0 mi ESE 5.8 mph - N/A   Clear
4:53 PM 45.0 °F - 39.0 °F 80% 29.98 in 10.0 mi Calm Calm - N/A   Overcast
5:53 PM 46.9 °F - 39.9 °F 77% 29.99 in 10.0 mi Calm Calm - N/A   Mostly Cloudy
6:06 PM 46.0 °F - 39.0 °F 76% 29.99 in 10.0 mi Calm Calm - N/A   Mostly Cloudy
6:53 PM 48.0 °F - 41.0 °F 77% 29.97 in 10.0 mi SSW 5.8 mph - N/A   Overcast
7:53 PM 48.9 °F - 42.1 °F 77% 29.97 in 10.0 mi South 3.5 mph - N/A   Overcast
8:38 PM 48.9 °F - 42.1 °F 77% 29.96 in 10.0 mi Calm Calm - 0.00 in Rain Light Rain
8:53 PM 48.9 °F - 42.1 °F 77% 29.96 in 10.0 mi Calm Calm - 0.00 in   Overcast
9:53 PM 48.9 °F - 42.1 °F 77% 29.95 in 10.0 mi West 3.5 mph - N/A   Overcast
10:53 PM 48.9 °F - 39.9 °F 71% 29.93 in 10.0 mi NNW 4.6 mph - N/A   Overcast
11:53 PM 48.0 °F - 39.0 °F 71% 29.88 in 10.0 mi North 6.9 mph - N/A   Overcast